EUTELSAT 16A

Last updated on Wed Sep 09 2026 00:02:59 GMT+0000 (Coordinated Universal Time)

1 37836U 11057A 26251.51944895 .00000083 00000+0 00000+0 0 9991 2 37836 0.0790 59.4195 0005552 107.8682 23.3087 1.00274045 8179
UTC large
Height (km)
Speed (km/s)
/
Latitude / Longitude
Inclination (degrees)
Orbital Period (minutes)
Azimuth
Elevation
Range (km)
Doppler Factor

Next 0 passes for location: London (51.5072 / 0.1276)

No passes found over London.
EUTELSAT 16A